Regional Weather Roundup
Issued by NWS

Home | Current Version | Previous Version | Text Only | Print | Product List | Glossary Off
Versions: 1 2 3 4 5 6 7 8 9 10 11 12 13 14 15 16 17 18 19 20 21 22 23 24 25 26 27 28 29 30 31 32 33 34 35 36 37 38 39 40 41 42 43 44 45 46 47 48 49 50

000
ASUS43 KDMX 201107
RWRIA

WEATHER ROUNDUP FOR IOWA
NATIONAL WEATHER SERVICE DES MOINES IA
500 AM CST SAT DEC 20 2014

NOTE: "FAIR" INDICATES FEW OR NO CLOUDS BELOW 12,000 FEET WITH NO
SIGNIFICANT WEATHER AND/OR OBSTRUCTIONS TO VISIBILITY.

* - THESE STATIONS ARE NOT NWS STATIONS...THUS NOT UNDER NWS
QUALITY CONTROL.  THEY ALSO DO NOT REPORT WEATHER SUCH
AS PRECIPITATION OR FOG.

IAZ001>003-012>014-020>022-031>034-043>046-201200-
   NORTHWEST IOWA

CITY           SKY/WX    TMP DP  RH WIND       PRES   REMARKS
CARROLL *      CLOUDY    28  28 100 S7        30.13S FOG     WCI  21
CHEROKEE *     CLOUDY    30  30 100 S8        30.11S FOG     WCI  23
DENISON *      CLOUDY    28  30 100 S9        30.09F FOG     WCI  20
LE MARS *      CLOUDY    32  32 100 S7        30.09F FOG     WCI  26
ORANGE CITY *  CLOUDY    30  30 100 S7        30.07F FOG     WCI  23
SHELDON *      CLOUDY    30  30 100 S10       30.06F FOG     WCI  21
SIOUX CITY     CLOUDY    32  30  92 S9        30.10S FOG     WCI  24
SPENCER        CLOUDY    30  27  88 S10       30.10F FOG     WCI  21
STORM LAKE *   CLOUDY    28  28 100 S12       30.10F FOG     WCI  18
$$

IAZ055>058-069>071-079>083-090>094-201200-
   SOUTHWEST IOWA

CITY           SKY/WX    TMP DP  RH WIND       PRES   REMARKS
ATLANTIC *     CLOUDY    30  30 100 S6        30.12F FOG     WCI  24
AUDUBON *      CLOUDY    28  25  86 S6        30.13S HAZE    WCI  22
CLARINDA *     CLOUDY    32  32 100 S10       30.16F FOG     WCI  24
COUNCIL BLFS * CLOUDY    30  30 100 S9        30.09F FOG     WCI  22
CRESTON *      CLOUDY    30  30 100 S10       30.14F FOG     WCI  21
HARLAN  *      CLOUDY    30  30 100 S9        30.14F FOG     WCI  22
LAMONI         CLOUDY    31  30  96 SW5       30.16F FOG     WCI  26
RED OAK *      CLOUDY    30  32 100 S9        30.13F FOG     WCI  22
SHENANDOAH *   CLOUDY    32  32 100 S9        30.14F FOG     WCI  24
$$

IAZ047>049-059>061-072>074-084-201200-
   CENTRAL IOWA

CITY           SKY/WX    TMP DP  RH WIND       PRES   REMARKS
AMES           CLOUDY    30  29  96 SE7       30.16F FOG     WCI  23
ANKENY *       MIX PCPN  32  30  93 SW5       30.17S WCI  27
CHARITON *     CLOUDY    32  32 100 S7        30.17S FOG     WCI  26
DES MOINES     FRZ DRZL  32  30  92 S5        30.17F FOG     WCI  27
GRINNELL*      CLOUDY    30  28  93 SE8       30.18F FOG     WCI  23
KNOXVILLE *    CLOUDY    32  30  93 SE5       30.17S FOG     WCI  27
MARSHALLTOWN   CLOUDY    29  28  96 SE8       30.16F FOG     WCI  21
PELLA *        CLOUDY    32  30  93 S6        30.19F FOG     WCI  26
PERRY *        CLOUDY    30  30 100 S5        30.15F FOG     WCI  25
$$

IAZ004>006-015-016-023>025-035-036-201200-
   NORTH CENTRAL IOWA

CITY           SKY/WX    TMP DP  RH WIND       PRES   REMARKS
ALGONA *       CLOUDY    28  28 100 S12       30.13F WCI  18
CLARION *      CLOUDY    30  30 100 SW5       30.14F WCI  25
ESTHERVILLE    CLOUDY    28  26  92 S12       30.09F WCI  18
FORT DODGE *   CLOUDY    28  25  86 S6        30.15S WCI  22
MASON CITY     FOG       29  28  96 S7        30.17S VSB 3/4 WCI  22
FOREST CITY *  CLOUDY    32  30  93 S6        30.15S FOG     WCI  26
IOWA FALLS *   CLOUDY    30  28  93 SE6       30.16F FOG     WCI  24
$$

IAZ007>011-017>019-026>030-037>042-050>054-066-201200-
   NORTHEAST IOWA

CITY           SKY/WX    TMP DP  RH WIND       PRES   REMARKS
CEDAR RAPIDS   CLOUDY    30  25  81 SE6       30.20F WCI  24
CHARLES CITY * CLOUDY    28  28 100 SE8       30.18S FOG     WCI  20
CLINTON *      CLOUDY    28  25  86 E5        30.28S WCI  23
DECORAH *      CLOUDY    27  25  93 SE5       30.18F FOG     WCI  21
DUBUQUE        CLOUDY    26  24  92 SE3       30.23S FOG
MONTICELLO *   CLOUDY    28  27  93 E8        30.22F WCI  20
OELWEIN *      CLOUDY    28  27  93 SE9       30.20S WCI  20
WATERLOO       CLOUDY    29  26  89 SE9       30.18F WCI  20
$$

IAZ064-065-067-068-078-201200-
   EAST CENTRAL IOWA

CITY           SKY/WX    TMP DP  RH WIND       PRES   REMARKS
DAVENPORT      CLOUDY    29  23  78 E6        30.25S WCI  23
IOWA CITY      CLOUDY    30  25  81 SE6       30.24S WCI  24
MT. PLEASANT * CLOUDY    30  27  86 SE7       30.22F WCI  23
MUSCATINE *    CLOUDY    32  27  80 SE5       30.25S WCI  27
$$

IAZ062-063-075>077-085>089-095>099-201200-
   SOUTHEAST IOWA

CITY           SKY/WX    TMP DP  RH WIND       PRES   REMARKS
BURLINGTON     CLOUDY    31  26  82 CALM      30.23F
FAIRFIELD *    CLOUDY    30  28  93 SE5       30.21S WCI  25
FORT MADISON * CLOUDY    34  30  86 S3        30.24S
KEOKUK *       CLOUDY    32  28  86 SE6       30.22F WCI  26
OSKALOOSA *    CLOUDY    30  28  93 SE6       30.20F FOG     WCI  24
CENTERVILLE *  FOG       32  32 100 SE6       30.19S VSB 1   WCI  26
OTTUMWA        CLOUDY    31  28  89 S7        30.19F FOG     WCI  24
WASHINGTON *   CLOUDY    30  30 100 SE6       30.22S WCI  24
$$

ABBREVIATIONS USED IN REMARKS
   TC - TEMPERATURES IN CELSIUS
  WCI - WIND CHILL INDEX
   HX - HEAT INDEX
  VSB - VISIBILITY
$$




USA.gov is the U.S. government's official web portal to all federal, state and local government web resources and services.